Location: Newark
(46.3150°N, 5.9081°E)
Time: 21:05:28
(UTC+00:00)

OTV 5 (USA 277) - Visible Passes

Search period start: 19 October 2019 00:00
Search period end: 29 October 2019 00:00
Orbit: 310 x 324 km, 54.5° (Epoch: 17 October)

Date Brightness Start Highest point End Pass type
(mag) Time Alt. Az. Time Alt. Az. Time Alt. Az.
19 Oct ? 03:19:31 10° E 03:19:31 10° E 03:19:31 10° E visible
19 Oct ? 04:50:26 26° W 04:51:27 38° SW 04:54:01 10° SSE visible
20 Oct ? 03:34:07 13° ESE 03:34:07 13° ESE 03:34:27 10° ESE visible
20 Oct ? 05:05:03 15° WSW 05:05:49 16° SW 05:07:36 10° S visible
21 Oct ? 03:48:52 11° SE 03:48:52 11° SE 03:49:02 10° SE visible
28 Oct ? 18:38:11 10° SW 18:38:41 14° SW 18:38:41 14° SW visible
